Location: Wiler
(46.4041°N, 7.7840°E)
Time: 09:05:50
(UTC+00:00)

SL-24 R/B - RUBIN 2 - Pass Details

Date: 09 April 2020
Orbit: 569 x 1026 km, 64.6° (Epoch: 23 May)

Event Time Altitude Azimuth Distance (km) Brightness Sun altitude
Rises 19:21:37 0° 220° (SW) 3,256 7.4 -12.6°
Reaches altitude 10° 19:23:54 10° 222° (SW) 2,398 6.8 -13.0°
Maximum altitude 19:29:30 77° 308° (NW) 917 4.5 -13.8°
Drops below altitude 10° 19:35:53 10° 36° (NE) 2,707 6.8 -14.8°
Sets 19:38:35 0° 37° (NE) 3,704 7.5 -15.2°
